Weather in Boiarka

Ukraine / Kyiv Region     50°19′40″N   30°17′31″E
temp.,
°C
wind,
m/s
gust,
m/s
humid.,
%
clouds,
%
prec.,
mm/h
press.,
hPa
HPBL,
m
25 july, sun
sun2500:00+20wnw1161100 0.0 101711
03:00+20w226294 0.0 101821
06:00+19nw1170100 0.0 101812
09:00+21nw117189 0.0 101875
12:00+25s225065 0.0 10191060
15:00+25ssw335040 0.0 1019679
18:00+26sw22443 0.0 10191539
21:00+21ene116515 0.0 101913
26 july, mon
mon2600:00+19e237576 0.0 102033
03:00+19se346944 0.0 102094
06:00+17se2375100 0.0 102041
09:00+23sse2362100 0.0 1021282
12:00+23s236778 0.0 1021189
15:00+28se443972 0.0 10192593
18:00+25sse475977 0.0 1020409
21:00+22sse225816 0.0 102017
27 july, tue
tue2700:00+19ese33697 0.0 102032
03:00+18se22783 0.0 102027
06:00+18se34776 0.0 102051
09:00+24sse46585 0.0 1019329
12:00+28sse68455 0.0 10181189
15:00+30s673940 0.0 10172227
18:00+29s365087 0.0 1016471
21:00+24sse476518 0.0 1016101
28 july, wed
wed2800:00+19ssw337645 0.2 101744
03:00+18ssw399085 1.9 1016154
06:00+18sw3690100 1.2 101597
09:00+23wsw457646 1.6 1014324
12:00+27wsw45605 0.1 1014887
15:00+30w465159 0.2 10132065
18:00+29wnw46545 0.0 10131518
21:00+24nw226787 0.0 101323
29 july, thu
thu2900:00+21wnw2275100 0.0 101312
03:00+20wnw227699 0.0 101311
06:00+20nw1178100 0.0 101311
09:00+25s006291 0.0 1013309
12:00+27ese115525 0.0 1013784
15:00+30sse224669 0.0 10121707
18:00+30ese22503 0.0 10111314
21:00+22e2373100 2.1 101039